Back to catalog

COSMOS 397 DEB *

AliveLEO
NORAD 5527·DEBRIS·🇷🇺 Russia

Launched Feb 25, 1971 from Baikonur Cosmodrome

Loading…

Next Passes (next 24 hours)

TLE

FreshSource: Space-Track

Epoch: Sep 13, 2026, 19:45 UTC

1 05527U 71015BR  26256.82324414  .00002287  00000-0  11634-2 0  9998
2 05527  66.8685  51.4610 0074884 255.9653 103.3106 14.16162118802985

Track COSMOS 397 DEB * in real time with AllMySat

Download on the App Store